Wainwright, AK

11:34 AM AKST on December 10, 2016 (GMT -0900)
Wainwright

Weather History for PAWI - April, 2013

Change the Weather History Date:

Friday, April 26, 2013

  Actual Average (PABR) Record (PABR)
Temperature  
Mean Temperature 12 °F -  
Max Temperature 18 °F 12 °F 39 °F (2009)
Min Temperature 3 °F -2 °F -27 °F (1924)
Degree Days  
Heating Degree Days 53    
Moisture  
Dew Point 11 °F    
Average Humidity 83    
Maximum Humidity 93    
Minimum Humidity 73    
Precipitation  
Precipitation 0.03 in - - ()
Sea Level Pressure  
Sea Level Pressure 29.86 in    
Wind  
Wind Speed 8 mph (East)    
Max Wind Speed 16 mph    
Max Gust Speed -    
Visibility 5 miles    
Events Fog , Snow    
Averages and records for this station are not official NWS values.
T = Trace of Precipitation, MM = Missing Value Source: NWS Daily Summary

Daily Weather History Graph

Daily Weather History Graph

Search for Another Location

Airport or City:

Trip Planner

Search our weather history database for the weather conditions in past years. The results will help you decide how hot, cold, wet, or windy it might be!

Date:

Astronomy

Apr. 26, 2013 Rise Set
Actual Time 5:27 AM AKDT 11:52 PM AKDT
Civil Twilight 3:10 AM AKDT 2:05 AM AKDT
Nautical Twilight Sun does not rise Sun does not rise
Astronomical Twilight Sun does not rise Sun does not rise
Moon 12:55 AM AKDT (4/26) 5:14 AM AKDT (4/26)
Length of Visible Light 22h 54m
Length of Day
18h 24m
Full, 99% of the Moon is Illuminated
Apr 26
Full
May 2
Last Quarter
May 9
New
May 17
First Quarter
May 24
Full

Hourly Weather History & Observations

Time (AKDT) Temp. Windchill Dew Point Humidity Pressure Visibility Wind Dir Wind Speed Gust Speed Precip Events Conditions
12:43 AM 17.6 °F 9.3 °F 14.0 °F 86% 29.94 in 10.0 mi South 5.8 mph - N/A   Overcast
12:53 AM 18.0 °F 9.8 °F 14.0 °F 84% 29.94 in 10.0 mi South 5.8 mph - N/A   Overcast
1:41 AM 17.6 °F 10.7 °F 15.8 °F 93% 29.91 in 0.5 mi South 4.6 mph - N/A Fog Light Freezing Fog
1:53 AM 18.0 °F 8.7 °F 15.1 °F 88% 29.91 in 0.5 mi South 6.9 mph - N/A Fog Light Freezing Fog
2:19 AM 17.6 °F 9.3 °F 15.8 °F 93% 29.89 in 3.0 mi SSE 5.8 mph - 0.00 in   Overcast
2:26 AM 17.6 °F 9.3 °F 15.8 °F 93% 29.88 in 5.0 mi SSE 5.8 mph - 0.00 in   Overcast
2:53 AM 18.0 °F 8.7 °F 14.0 °F 84% 29.87 in 1.8 mi SSE 6.9 mph - 0.00 in Snow Light Snow
3:05 AM 17.6 °F 8.2 °F 14.0 °F 86% 29.85 in 2.0 mi SSE 6.9 mph - 0.01 in Snow Light Snow
3:14 AM 17.6 °F 8.2 °F 14.0 °F 86% 29.85 in 1.8 mi South 6.9 mph - 0.01 in Snow Light Snow
3:53 AM 17.1 °F 7.6 °F 14.0 °F 88% 29.83 in 2.5 mi South 6.9 mph - 0.01 in Snow Light Snow
4:00 AM 17.6 °F 8.2 °F 14.0 °F 86% 29.82 in 3.0 mi SSE 6.9 mph - 0.00 in Snow Light Snow
4:34 AM 17.6 °F 9.3 °F 14.0 °F 86% 29.80 in 2.0 mi SE 5.8 mph - 0.00 in Snow Light Snow
4:38 AM 17.6 °F 10.7 °F 14.0 °F 86% 29.80 in 1.8 mi SE 4.6 mph - 0.00 in Snow Light Snow
4:53 AM 17.1 °F 10.0 °F 14.0 °F 88% 29.80 in 1.5 mi SE 4.6 mph - 0.00 in Snow Light Snow
5:35 AM 17.6 °F 9.3 °F 14.0 °F 86% 29.78 in 0.8 mi SE 5.8 mph - 0.01 in Snow Light Snow
5:53 AM 17.1 °F 10.0 °F 14.0 °F 88% 29.78 in 1.2 mi SE 4.6 mph - 0.01 in Snow Light Snow
6:23 AM 17.6 °F 9.3 °F 14.0 °F 86% 29.77 in 3.0 mi SSE 5.8 mph - 0.00 in Snow Light Snow
6:40 AM 17.6 °F 10.7 °F 14.0 °F 86% 29.76 in 1.8 mi SE 4.6 mph - 0.00 in Snow Light Snow
6:51 AM 17.6 °F 10.7 °F 15.8 °F 93% 29.76 in 1.2 mi SSE 4.6 mph - 0.00 in Snow Light Snow
6:53 AM 18.0 °F 11.1 °F 15.1 °F 88% 29.76 in 1.5 mi SSE 4.6 mph - 0.00 in Snow Light Snow
7:09 AM 17.6 °F 10.7 °F 12.2 °F 79% 29.76 in 2.5 mi SE 4.6 mph - 0.01 in Snow Light Snow
7:27 AM 15.8 °F 8.6 °F 12.2 °F 86% 29.75 in 4.0 mi ESE 4.6 mph - 0.01 in Snow Light Snow
7:53 AM 18.0 °F 9.8 °F 14.0 °F 84% 29.75 in 6.0 mi NE 5.8 mph - 0.01 in Snow Light Snow
8:27 AM 17.6 °F 10.7 °F 14.0 °F 86% 29.74 in 10.0 mi ENE 4.6 mph - 0.00 in   Overcast
8:53 AM 18.0 °F 7.7 °F 14.0 °F 84% 29.75 in 10.0 mi NE 8.1 mph - 0.00 in   Overcast
9:10 AM 17.6 °F 8.2 °F 14.0 °F 86% 29.74 in 5.0 mi NE 6.9 mph - 0.00 in Snow Light Snow
9:53 AM 17.1 °F 6.6 °F 12.9 °F 84% 29.75 in 10.0 mi NE 8.1 mph - 0.00 in   Overcast
10:40 AM 17.6 °F 5.7 °F 12.2 °F 79% 29.76 in 6.0 mi ENE 10.4 mph - 0.00 in Snow Light Snow
10:53 AM 17.1 °F 5.8 °F 12.9 °F 84% 29.77 in 9.0 mi ENE 9.2 mph - 0.00 in Snow Light Snow
11:37 AM 17.6 °F 6.4 °F 12.2 °F 79% 29.77 in 4.0 mi ENE 9.2 mph - 0.00 in Snow Light Snow
11:53 AM 18.0 °F 6.1 °F 12.9 °F 81% 29.78 in 2.0 mi NE 10.4 mph - 0.00 in Snow Light Snow
12:53 PM 16.0 °F 2.3 °F 10.9 °F 81% 29.80 in 1.0 mi NE 12.7 mph - 0.00 in Snow Light Snow
1:11 PM 17.6 °F 3.7 °F 10.4 °F 73% 29.81 in 1.2 mi NE 13.8 mph - 0.00 in Snow Light Snow
1:53 PM 17.1 °F 3.0 °F 10.9 °F 77% 29.83 in 1.5 mi NE 13.8 mph - 0.00 in Snow Light Snow
2:06 PM 17.6 °F 3.7 °F 10.4 °F 73% 29.83 in 2.0 mi NNE 13.8 mph - 0.00 in Snow Light Snow
2:24 PM 15.8 °F 0.9 °F 10.4 °F 79% 29.85 in 3.0 mi NE 15.0 mph - 0.00 in Snow Light Snow
2:32 PM 15.8 °F 1.4 °F 10.4 °F 79% 29.85 in 2.5 mi NE 13.8 mph - 0.00 in Snow Light Snow
2:41 PM 15.8 °F 0.3 °F 10.4 °F 79% 29.86 in 2.0 mi NNE 16.1 mph - 0.00 in Snow Light Snow
2:53 PM 16.0 °F 0.6 °F 10.0 °F 77% 29.87 in 4.0 mi NNE 16.1 mph - 0.00 in Snow Light Snow
3:43 PM 14.0 °F -1.4 °F 8.6 °F 79% 29.90 in 5.0 mi NNE 15.0 mph - 0.00 in Snow Light Snow
3:53 PM 14.0 °F -1.4 °F 8.1 °F 77% 29.91 in 8.0 mi NNE 15.0 mph - 0.00 in   Overcast
4:30 PM 12.2 °F -3.1 °F 6.8 °F 79% 29.93 in 10.0 mi NNE 13.8 mph - N/A   Partly Cloudy
4:53 PM 12.9 °F -2.2 °F 6.1 °F 74% 29.94 in 10.0 mi NNE 13.8 mph - N/A   Clear
5:42 PM 12.2 °F -2.5 °F 6.8 °F 79% 29.97 in 10.0 mi NNE 12.7 mph - N/A   Mostly Cloudy
5:53 PM 12.0 °F -2.7 °F 5.0 °F 73% 29.98 in 7.0 mi NNE 12.7 mph - N/A   Mostly Cloudy
6:53 PM 12.0 °F -3.4 °F 5.0 °F 73% 30.02 in 10.0 mi North 13.8 mph - N/A   Overcast
7:53 PM 10.9 °F -3.4 °F 5.0 °F 77% 30.06 in 10.0 mi North 11.5 mph - N/A   Clear
8:53 PM 10.0 °F -2.9 °F 3.0 °F 73% 30.09 in 10.0 mi North 9.2 mph - N/A   Clear
9:53 PM 8.1 °F -2.0 °F 1.9 °F 76% 30.12 in 10.0 mi North 5.8 mph - N/A   Clear
10:53 PM 6.1 °F -5.6 °F 1.0 °F 80% 30.15 in 10.0 mi NNW 6.9 mph - N/A   Clear
11:53 PM 3.9 °F -6.9 °F -0.0 °F 84% 30.19 in 8.0 mi NW 5.8 mph - N/A   Clear